Location: Kutna Hora
(49.9500°N, 15.2670°E)
Time: 06:39:41
(UTC+02:00)

ISS - Pass Details

Date: 23 May 2019
Orbit: 408 x 418 km, 51.6° (Epoch: 25 June)

Event Time Altitude Azimuth Distance (km) Brightness Sun altitude
Rises 23:22:39 0° 279° (W) 2,359 0.5 -16.4°
Reaches altitude 10° 23:24:45 10° 282° (WNW) 1,498 -0.5 -16.6°
Maximum altitude 23:28:06 65° 5° (N) 465 -3.4 -16.8°
Enters shadow 23:30:56 14° 87° (E) 1,294 -1.5 -16.9°
